Location: Neuvy Saint Sepulchre
(46.5953°N, 1.8122°E)
Time: 05:55:51
(UTC+02:00)

ISS - Pass Details

Date: 01 July 2021
Orbit: 417 x 422 km, 51.6° (Epoch: 16 June)

Event Time Altitude Azimuth Distance (km) Brightness Sun altitude
Exits shadow 04:16:43 23° 187° (S) 934 -2.5 -13.5°
Maximum altitude 04:18:05 33° 143° (SE) 725 -2.7 -13.3°
Drops below altitude 10° 04:21:09 10° 77° (ENE) 1,501 -0.2 -13.0°
Sets 04:23:22 0° 67° (ENE) 2,368 1.1 -12.8°
